Temperature
21 21 21 21 24 25 24 23 24 23 23 22 22 22 22 22 21 20 17 16 16 16 16 17 17 17 17 17 17 17 17 17 17 17 17 18 17 17 18 18 18 17 17 17 18 18 18 18 18
21 22 21 23 25 24 23 23 23 23 22 21 21 22 22 20 19 18 17 16 16 16 16 16 17 17 17 17 17 17 17 17 17 17 17 17 17 17 17 17 17 17 17 17 17 17 17 17 17
22 22 23 25 25 24 23 23 23 22 21 22 22 21 21 20 18 18 17 16 16 16 16 16 17 17 17 17 17 17 17 17 17 17 17 17 17 17 17 17 17 17 17 17 17 17 17 17 17
21 22 24 25 24 24 24 24 23 23 22 22 22 21 20 18 18 17 16 16 16 16 16 16 16 16 17 17 17 17 17 17 17 17 17 17 17 17 17 17 17 17 17 17 17 17 17 17 17
21 24 25 24 23 24 24 23 23 23 23 22 22 21 20 17 17 17 16 16 16 16 16 16 17 16 16 17 17 17 17 17 17 17 17 17 17 17 17 17 17 17 17 17 17 17 17 17 17
23 25 24 24 23 23 24 23 23 23 23 22 22 22 19 17 17 16 16 16 16 16 16 16 16 17 17 17 16 16 17 17 17 17 17 17 17 17 17 16 17 17 17 17 17 17 17 17 17
24 24 24 24 23 23 23 23 23 23 23 22 22 22 19 17 17 16 16 16 16 16 16 16 16 16 16 17 16 16 16 16 16 16 16 16 16 16 16 16 16 16 16 16 16 16 16 16 16
23 25 24 24 23 23 23 22 22 22 22 21 21 22 20 18 17 16 16 16 16 16 16 16 16 16 16 16 16 16 16 16 16 16 16 16 16 16 16 16 16 16 16 16 16 16 16 16 16
23 24 23 23 23 23 23 23 22 21 21 20 20 20 19 17 17 17 17 16 16 16 16 16 16 16 16 16 16 16 16 16 16 16 16 16 15 15 16 16 16 16 16 16 16 16 16 16 16
24 24 23 24 24 24 23 23 22 22 22 21 20 19 18 17 17 17 17 17 17 17 16 16 16 16 16 16 16 16 16 16 16 15 16 15 15 15 16 16 16 16 16 16 16 16 16 16 16
24 23 23 23 23 23 23 22 22 23 22 22 21 19 18 17 17 18 18 17 17 17 16 16 16 16 16 16 16 16 16 16 15 15 15 15 15 15 15 15 15 16 16 15 16 16 16 15 15
23 23 23 23 22 22 22 22 22 22 22 21 20 19 18 18 18 18 18 18 17 17 17 16 16 16 16 16 16 16 16 16 15 15 15 15 15 15 15 15 15 15 15 15 15 15 15 15 15
23 23 22 22 21 22 22 22 22 21 20 20 19 19 18 18 18 18 18 17 17 17 17 16 16 16 16 16 16 16 15 16 15 15 15 15 15 15 15 15 15 15 15 15 15 15 15 15 15
23 23 22 22 22 22 22 22 22 21 20 20 19 19 18 18 18 18 18 17 17 17 17 16 16 16 16 16 16 16 15 15 15 15 15 15 15 15 15 15 15 15 15 15 15 15 15 15 15
22 23 23 22 22 22 22 22 22 21 20 20 20 19 19 18 18 18 18 17 17 17 17 16 16 16 16 16 16 15 15 15 15 15 15 15 15 15 15 15 15 15 15 15 15 15 14 14 14
23 23 22 23 22 22 22 22 22 21 20 21 20 20 19 18 18 18 18 17 17 17 17 16 16 16 16 16 16 15 15 15 15 15 15 15 14 15 15 14 14 14 14 14 14 14 14 14 14
23 23 23 22 22 22 22 22 22 20 21 21 21 20 19 19 18 18 18 17 17 17 17 16 16 16 16 16 16 15 15 15 15 15 15 15 14 14 14 14 14 14 14 14 14 14 14 14 14
23 23 22 22 23 22 22 22 22 21 20 21 20 20 19 19 19 18 17 17 17 17 17 16 16 16 16 15 15 15 15 15 15 15 15 15 14 14 14 14 14 14 14 14 14 14 14 14 14
23 23 22 22 22 22 22 22 22 21 20 20 20 20 19 19 18 18 17 17 17 17 16 16 16 16 16 15 15 15 15 15 15 15 15 15 14 14 14 14 14 14 14 13 13 13 13 13 13
22 22 22 22 22 22 22 21 22 21 20 20 20 20 19 19 18 17 17 17 17 16 16 16 16 15 15 15 15 15 15 15 15 15 15 15 14 14 14 14 14 14 14 13 13 13 13 13 13
22 22 22 22 21 22 21 21 22 21 20 19 19 19 19 18 18 17 17 17 16 16 16 16 16 15 15 15 15 15 15 15 15 15 15 15 14 14 14 14 14 14 13 13 13 13 13 13 13
22 22 22 21 22 22 21 21 22 21 21 20 19 18 18 18 17 17 17 16 16 16 16 16 16 15 15 15 15 15 15 15 14 14 15 15 14 14 14 14 14 13 13 13 13 13 13 13 12
22 21 21 21 22 22 22 22 22 21 21 20 19 18 17 17 17 16 16 16 16 16 16 16 16 15 15 15 15 15 15 14 14 14 14 14 14 14 14 14 14 13 13 13 13 13 13 13 12
21 21 21 21 22 21 22 21 21 21 20 20 19 18 17 17 16 16 16 16 16 16 16 16 16 15 15 15 15 15 14 14 14 14 14 14 14 14 14 14 13 13 13 13 13 13 12 12 12
21 22 21 21 21 21 21 21 21 20 20 19 18 18 17 16 16 16 16 16 16 16 16 16 15 15 15 15 15 15 14 14 14 14 14 14 14 14 14 13 13 13 13 13 13 12 12 12 12
21 22 21 21 21 21 21 21 21 20 18 17 17 17 17 16 16 15 15 15 15 16 16 15 15 15 15 15 15 15 14 14 14 14 14 14 14 14 13 13 13 13 13 13 12 12 12 12 12
21 21 21 21 21 21 21 21 20 19 19 18 17 16 16 16 15 15 15 15 15 15 15 15 15 15 15 15 15 14 14 14 14 14 14 14 14 13 13 13 13 13 13 12 12 12 12 12 12
21 21 21 21 20 20 21 21 20 19 18 18 17 16 16 15 15 15 15 15 15 15 15 15 15 15 15 14 14 14 14 14 13 13 13 13 13 13 13 13 13 12 12 12 12 12 12 11 11
20 19 20 20 20 20 20 21 20 19 18 18 17 16 15 15 14 14 14 14 14 15 15 15 15 15 14 14 14 14 14 14 13 13 13 13 13 13 13 13 12 12 12 12 12 12 11 11 11
20 20 20 20 20 20 20 20 19 18 18 17 16 15 14 14 14 14 14 14 14 14 14 14 14 14 14 14 14 14 14 14 13 13 13 13 13 13 12 12 12 12 12 12 12 12 11 11 11
Wind_Speed
3 2 2 2 1 3 6 5 4 4 4 5 5 4 5 6 5 5 4 4 4 4 5 6 6 7 9 9 10 10 10 10 10 11 12 12 12 12 12 13 13 13 13 13 12 12 12 11 11
1 1 2 1 1 5 6 5 6 6 6 5 5 4 5 6 5 6 5 4 4 5 5 7 7 8 9 10 10 10 10 10 11 11 12 12 12 12 12 12 12 13 13 12 12 11 11 11 11
1 1 1 1 3 4 6 5 6 7 5 3 3 4 4 5 4 4 5 5 5 6 7 8 7 8 9 10 10 10 10 10 11 11 11 11 12 12 12 12 12 12 12 12 11 11 11 10 10
2 1 0 3 7 6 5 6 6 6 4 3 3 5 4 5 3 5 7 6 6 6 7 9 7 8 9 9 10 10 10 10 11 11 11 12 12 12 12 12 12 11 11 12 11 11 11 10 10
1 0 3 5 7 6 5 4 3 4 3 4 4 5 5 5 6 8 8 6 6 6 7 9 8 8 8 9 9 9 10 10 11 11 11 11 12 12 12 12 12 11 11 11 11 11 11 11 11
0 1 3 5 7 5 5 4 4 4 5 4 4 5 5 6 7 7 7 6 6 6 6 8 8 8 8 9 9 9 10 10 10 10 11 11 11 11 11 11 12 12 12 11 11 11 11 11 10
1 1 3 6 6 5 4 3 3 3 4 3 3 4 6 7 7 7 7 6 6 6 6 6 7 8 8 9 9 9 9 10 10 10 10 10 10 10 11 11 11 12 11 11 11 11 11 10 10
1 2 5 4 5 5 4 3 2 2 3 4 2 3 5 8 8 8 7 6 6 6 5 5 6 6 6 8 9 8 8 9 9 9 10 8 8 9 9 10 11 11 11 11 10 10 10 9 9
1 2 4 4 3 4 4 4 3 2 4 4 2 4 6 11 10 9 7 6 6 5 5 5 5 5 5 6 7 7 7 7 6 8 7 4 6 8 8 11 11 10 10 10 10 9 8 6 8
1 2 3 2 2 3 4 3 4 4 5 4 5 6 9 11 10 9 7 7 6 5 4 4 4 4 5 4 5 4 5 5 5 6 6 5 6 6 7 9 9 9 8 8 9 6 4 2 5
2 2 3 3 3 3 3 3 2 3 3 3 4 8 11 10 9 8 6 6 5 5 4 3 3 3 4 3 3 3 3 4 4 5 5 4 4 4 4 4 5 6 5 6 5 3 5 5 5
3 3 3 3 3 3 2 3 3 2 1 1 4 9 11 11 9 7 6 6 5 4 4 3 3 3 3 3 3 3 3 3 3 3 4 4 3 3 4 3 4 4 4 4 4 4 4 5 5
4 3 3 3 3 3 3 2 2 1 1 2 6 9 10 9 8 7 6 5 5 4 4 3 3 2 2 2 2 2 2 2 3 3 3 4 3 3 3 3 4 4 4 3 3 4 4 4 5
4 4 3 3 3 2 2 2 2 2 3 5 7 8 9 8 8 7 6 6 5 5 4 4 3 2 2 2 2 2 2 2 2 3 3 4 3 3 3 4 4 4 3 3 3 3 3 4 4
5 4 3 2 2 2 3 3 3 3 5 6 7 7 8 7 7 7 6 6 5 5 5 4 3 2 2 2 2 2 2 2 2 2 2 3 3 3 3 3 3 3 3 3 3 3 3 3 3
5 5 4 2 2 3 4 3 3 4 6 6 6 7 7 7 7 7 6 5 5 5 5 5 4 3 3 2 2 1 1 2 2 2 1 2 2 3 3 2 3 3 3 2 2 2 2 2 2
5 4 3 2 2 3 4 3 1 3 6 6 6 6 7 7 7 7 6 6 5 5 5 5 5 4 3 2 2 1 1 1 1 1 1 1 1 2 2 2 2 3 2 2 2 2 2 2 2
4 4 3 2 2 3 4 4 2 3 5 6 6 6 6 7 7 7 6 6 5 5 5 5 5 4 3 3 2 2 1 1 1 1 0 0 0 1 1 1 1 2 2 2 2 2 2 2 1
3 4 3 2 1 2 3 3 3 2 3 5 5 6 5 6 5 5 6 6 6 6 5 5 5 4 3 3 2 2 2 2 1 1 0 0 1 1 1 0 0 0 0 1 1 1 1 1 1
6 5 3 1 1 2 2 3 3 2 3 4 4 4 4 4 4 4 5 6 7 7 6 6 5 5 4 3 3 2 2 2 1 1 1 1 1 1 1 1 1 1 0 1 1 0 1 0 1
6 5 3 2 1 4 3 3 3 2 2 1 2 3 3 4 5 5 6 6 6 7 7 6 6 6 5 4 3 2 2 1 1 2 1 1 2 2 2 2 2 1 2 1 2 2 2 1 1
5 3 4 4 4 3 3 3 2 2 2 1 1 2 2 3 4 4 5 6 7 7 7 7 7 6 6 5 4 4 3 3 3 2 2 1 2 2 2 2 2 2 2 2 2 2 2 2 2
2 2 4 4 5 4 4 4 2 3 2 1 0 0 1 1 3 4 5 5 5 6 6 6 7 7 7 6 6 5 4 3 2 2 2 2 2 2 2 3 3 3 2 2 2 2 2 2 2
4 5 5 5 5 5 4 5 1 1 1 1 1 1 0 0 1 2 3 3 3 4 5 5 6 7 7 7 7 7 6 5 4 4 3 3 2 2 3 3 3 3 3 3 3 3 3 3 3
5 5 4 4 4 3 1 4 1 2 3 2 2 1 1 0 1 1 1 1 2 3 4 5 6 7 7 7 7 7 7 6 6 5 4 4 3 3 4 4 4 4 4 4 4 4 3 4 4
6 6 4 3 3 2 3 4 2 3 3 3 2 2 1 1 0 0 1 2 2 3 4 5 6 6 6 7 7 7 6 5 5 5 4 4 3 4 4 5 4 4 4 4 4 4 4 4 4
5 5 4 4 4 4 4 3 2 2 3 4 4 3 3 3 2 1 1 1 2 2 3 5 5 5 5 6 6 6 6 5 5 5 5 4 4 3 4 4 5 5 5 5 5 4 4 4 4
2 3 4 4 4 4 5 5 3 1 1 2 3 4 4 3 3 2 1 1 2 2 2 4 4 5 5 5 5 4 5 5 6 5 5 4 4 4 4 4 5 5 5 6 5 5 4 5 4
5 5 4 4 5 5 5 2 1 0 1 2 2 3 3 3 3 2 1 1 1 1 1 3 3 4 4 4 4 4 4 4 5 5 5 5 5 4 5 5 5 5 5 6 5 6 5 5 5
4 5 6 6 5 5 5 2 3 1 1 1 2 3 3 3 3 3 2 1 1 1 1 1 2 2 3 3 3 4 4 4 4 4 4 5 5 5 5 5 5 5 6 6 6 6 6 6 6
Wind_Direction
198 203 244 248 189 99 87 84 87 96 80 65 62 63 63 45 35 73 95 91 79 82 80 83 67 75 80 82 83 83 81 76 74 74 72 71 71 71 72 74 77 78 78 78 77 75 75 77 77
218 235 245 257 148 112 93 94 92 76 95 104 81 69 70 69 60 91 109 96 92 88 85 79 73 76 79 81 80 81 81 78 75 73 71 69 70 71 73 73 75 78 78 78 76 75 74 74 73
181 268 314 98 83 85 101 102 100 99 107 99 86 60 54 70 85 98 103 116 102 92 88 84 73 77 78 78 78 77 78 78 77 75 73 71 70 70 71 74 75 75 75 75 74 71 71 71 72
242 204 122 104 95 78 93 109 119 125 116 89 100 88 78 65 80 102 116 116 105 96 92 88 75 77 78 81 80 78 78 77 76 75 74 71 69 68 67 69 71 72 71 71 69 68 67 68 69
252 204 128 113 99 95 96 105 128 123 112 107 110 95 92 87 96 113 120 114 106 101 96 95 82 79 79 79 80 79 79 77 75 75 74 71 70 68 69 68 67 69 69 68 65 64 65 64 61
168 189 148 127 114 110 115 127 134 113 108 116 117 106 96 114 122 121 120 115 108 104 100 100 96 86 81 79 81 81 78 77 75 74 73 71 70 68 68 67 67 68 67 66 64 63 63 62 58
116 126 126 128 128 123 110 121 135 118 119 113 123 112 117 132 131 129 122 117 111 106 103 103 106 106 100 88 80 80 78 75 74 74 72 71 71 70 69 68 68 69 69 68 65 63 63 62 60
87 138 135 136 140 120 118 129 114 139 107 107 143 125 129 145 143 137 129 123 117 113 108 103 102 101 101 100 91 84 80 76 75 77 73 77 85 83 77 74 70 68 66 67 66 65 63 62 62
222 165 142 138 147 125 136 145 123 117 124 121 102 76 111 139 147 145 138 131 123 117 114 112 109 102 95 92 100 100 96 87 93 93 89 86 79 76 77 68 66 64 64 66 67 64 62 65 76
189 159 129 120 136 130 139 148 148 153 139 135 126 115 131 146 154 154 149 144 139 133 124 117 114 109 102 95 97 94 90 88 79 76 76 68 68 69 72 82 73 67 68 74 69 66 75 55 72
144 131 127 130 132 131 134 130 148 169 142 150 156 149 150 156 160 160 154 145 139 135 129 127 119 111 104 100 91 86 84 85 82 74 74 74 77 81 72 70 79 72 69 65 70 66 56 58 61
139 120 135 134 135 144 138 138 145 176 138 96 148 153 157 164 166 166 159 149 147 144 137 135 131 123 113 100 95 97 91 85 80 76 71 70 70 63 60 59 55 54 57 55 50 51 59 60 63
155 139 129 132 137 134 130 148 154 178 165 130 143 155 165 169 168 168 162 155 155 152 156 152 145 134 120 104 98 97 89 81 83 72 68 65 64 60 57 60 58 53 56 58 50 49 58 57 55
147 149 141 144 157 163 155 163 193 198 157 149 154 162 170 174 176 173 171 172 168 167 164 156 160 148 139 130 123 95 92 95 81 72 61 59 64 60 53 56 56 55 51 53 54 57 59 57 54
159 163 168 182 195 187 201 208 208 183 168 169 171 172 175 180 183 187 181 183 180 173 168 161 168 163 156 140 110 98 107 98 84 80 66 60 59 60 59 51 54 54 56 57 57 62 64 65 64
186 196 197 168 206 206 224 234 179 169 185 189 189 184 184 188 194 192 187 189 188 182 175 165 171 178 165 151 142 117 119 110 100 93 79 61 59 60 60 56 56 53 52 54 58 54 54 57 50
197 199 197 177 180 202 220 246 159 189 207 207 203 200 196 196 201 195 190 193 194 190 183 174 176 180 173 164 153 135 129 124 120 115 98 56 58 63 70 60 54 56 56 49 46 53 45 55 48
192 198 203 215 165 210 233 247 243 207 220 223 210 210 209 210 206 194 192 194 193 191 189 184 175 183 174 174 176 163 165 165 150 151 146 64 79 85 82 83 66 60 57 48 47 63 57 50 44
213 213 224 240 226 241 244 257 267 222 215 227 214 211 214 219 211 195 191 192 192 192 197 193 187 183 179 181 192 194 193 191 189 197 218 218 213 175 135 161 84 59 66 53 69 76 94 67 22
214 217 223 212 174 241 248 263 267 240 224 229 225 218 214 215 200 195 199 198 199 198 203 202 198 191 188 192 200 202 196 209 200 207 205 228 234 218 208 226 221 201 196 194 183 178 254 114 329
219 226 233 246 231 213 239 245 217 182 179 213 243 238 229 225 213 201 203 202 204 203 206 208 203 198 196 195 195 182 173 190 198 215 217 231 244 235 227 225 230 229 227 219 220 222 228 226 226
223 223 230 229 238 228 237 259 216 180 160 178 239 242 242 231 222 208 210 207 212 212 209 209 204 203 198 195 200 199 206 216 228 231 225 218 224 237 236 230 229 230 234 234 225 221 232 228 233
216 172 208 227 240 245 229 249 213 156 206 223 240 265 248 237 225 216 217 215 217 213 208 208 204 204 201 202 204 215 224 230 230 230 227 231 224 233 232 233 232 237 235 237 226 219 228 224 238
166 185 195 213 234 241 239 242 235 162 288 8 32 18 22 283 219 226 222 213 206 205 205 205 201 204 205 208 212 219 224 227 224 228 230 231 222 221 227 230 232 234 233 231 225 221 226 233 233
203 224 225 218 219 236 186 238 226 53 30 1 348 344 16 76 188 214 218 209 199 196 203 202 202 206 207 213 219 223 229 236 236 236 235 237 234 229 225 224 229 231 229 223 218 220 227 231 235
213 233 248 260 252 250 206 231 125 79 48 38 32 14 28 43 38 249 232 217 215 205 208 206 206 209 209 215 222 226 228 234 240 238 237 239 244 244 234 227 229 229 230 225 217 227 230 233 233
205 221 268 270 265 261 227 206 162 100 55 41 38 34 26 20 9 318 269 245 233 221 216 213 211 213 214 219 222 224 229 236 241 239 238 240 244 245 240 231 229 226 223 223 217 225 228 232 235
241 203 218 235 248 253 238 231 220 145 32 34 26 18 14 11 8 353 293 254 241 232 227 215 218 222 221 218 218 224 230 237 243 244 241 244 246 243 240 236 236 230 222 218 218 226 234 230 228
180 193 228 241 256 263 261 231 68 114 39 33 19 9 5 7 5 7 359 258 215 203 200 215 215 226 229 227 223 218 222 234 242 246 245 246 248 246 245 243 242 237 231 224 218 225 229 232 231
218 220 228 245 243 248 266 261 84 89 30 4 359 359 0 8 13 14 14 34 128 172 181 212 223 230 234 231 227 226 222 224 233 241 246 249 249 245 245 249 249 246 238 233 226 224 229 232 233
Height
1508 1507 1507 1509 1507 1507 1513 1515 1512 1515 1516 1519 1520 1519 1519 1522 1524 1531 1533 1530 1530 1530 1530 1529 1529 1529 1528 1528 1528 1527 1527 1527 1527 1527 1526 1526 1526 1525 1525 1525 1524 1524 1524 1524 1524 1524 1524 1524 1524
1509 1508 1510 1509 1506 1513 1518 1514 1515 1516 1519 1522 1522 1522 1522 1525 1528 1531 1531 1531 1531 1531 1531 1531 1530 1530 1530 1530 1529 1529 1529 1529 1529 1528 1528 1528 1528 1527 1527 1527 1526 1526 1526 1526 1526 1526 1526 1526 1526
1509 1509 1511 1507 1508 1513 1517 1516 1516 1520 1522 1522 1523 1524 1525 1528 1531 1532 1532 1532 1532 1533 1533 1532 1531 1532 1532 1531 1531 1531 1531 1530 1530 1530 1530 1530 1530 1529 1529 1529 1528 1528 1528 1528 1528 1528 1528 1528 1528
1511 1512 1511 1509 1514 1515 1514 1516 1518 1520 1522 1523 1524 1526 1528 1531 1532 1533 1532 1533 1534 1534 1534 1533 1533 1533 1533 1533 1533 1532 1532 1532 1532 1532 1532 1531 1531 1531 1531 1531 1530 1530 1530 1529 1529 1529 1529 1529 1529
1511 1511 1510 1513 1516 1516 1516 1518 1519 1519 1521 1524 1524 1526 1530 1532 1532 1533 1534 1535 1535 1535 1536 1535 1534 1535 1534 1534 1534 1534 1534 1534 1534 1534 1533 1533 1533 1532 1532 1532 1532 1531 1531 1531 1531 1531 1531 1530 1530
1513 1510 1512 1517 1517 1517 1518 1520 1520 1520 1523 1525 1526 1527 1531 1533 1534 1534 1535 1536 1536 1536 1537 1537 1536 1536 1536 1536 1536 1536 1536 1535 1535 1535 1535 1535 1534 1534 1534 1533 1533 1533 1533 1532 1532 1532 1532 1531 1531
1513 1510 1513 1515 1518 1518 1519 1521 1521 1522 1523 1526 1527 1528 1532 1534 1535 1535 1536 1537 1537 1538 1538 1539 1539 1538 1538 1537 1537 1537 1537 1537 1537 1537 1536 1536 1536 1536 1535 1535 1535 1534 1534 1534 1533 1533 1533 1532 1532
1513 1512 1514 1515 1518 1519 1521 1522 1523 1523 1525 1528 1528 1528 1531 1534 1535 1536 1537 1538 1538 1539 1539 1540 1540 1540 1540 1540 1539 1538 1538 1538 1538 1538 1538 1537 1537 1537 1537 1536 1536 1536 1535 1535 1534 1534 1534 1533 1533
1514 1513 1516 1516 1518 1518 1521 1522 1524 1525 1526 1528 1529 1530 1532 1533 1535 1537 1538 1539 1539 1540 1541 1541 1541 1541 1541 1541 1540 1540 1540 1540 1540 1540 1539 1539 1540 1539 1539 1538 1537 1537 1536 1536 1536 1535 1535 1535 1534
1513 1514 1516 1516 1516 1518 1521 1522 1524 1525 1526 1528 1530 1531 1532 1533 1535 1537 1538 1539 1540 1541 1541 1542 1542 1542 1542 1542 1542 1542 1542 1541 1541 1542 1541 1541 1541 1540 1540 1539 1538 1538 1537 1537 1537 1536 1536 1536 1536
1514 1514 1516 1518 1519 1520 1521 1523 1524 1524 1525 1527 1529 1531 1532 1534 1536 1537 1538 1539 1540 1541 1542 1542 1543 1543 1543 1543 1543 1543 1543 1542 1542 1542 1542 1542 1541 1541 1541 1541 1540 1539 1539 1539 1538 1538 1538 1538 1537
1515 1516 1518 1519 1521 1521 1522 1523 1525 1525 1527 1528 1529 1530 1532 1534 1536 1537 1539 1540 1541 1541 1542 1542 1543 1543 1543 1543 1543 1543 1543 1543 1543 1543 1543 1543 1542 1542 1542 1541 1541 1540 1540 1539 1539 1539 1539 1538 1538
1515 1517 1519 1521 1522 1522 1523 1524 1525 1526 1528 1528 1529 1531 1532 1534 1536 1538 1539 1540 1541 1541 1542 1543 1543 1544 1544 1544 1544 1544 1544 1544 1544 1543 1544 1543 1543 1543 1543 1542 1541 1541 1541 1540 1540 1540 1539 1539 1539
1516 1518 1519 1521 1521 1523 1523 1524 1525 1526 1527 1528 1529 1531 1532 1534 1536 1537 1538 1539 1541 1541 1542 1543 1543 1543 1544 1544 1544 1544 1544 1544 1544 1544 1544 1544 1544 1543 1543 1543 1542 1542 1541 1541 1540 1540 1539 1539 1539
1517 1517 1519 1520 1521 1522 1522 1523 1523 1525 1527 1528 1529 1530 1532 1534 1535 1536 1538 1539 1540 1541 1542 1542 1543 1543 1544 1544 1544 1544 1544 1545 1545 1544 1545 1545 1544 1544 1543 1543 1543 1542 1542 1541 1541 1540 1540 1539 1539
1515 1516 1519 1519 1520 1521 1523 1523 1522 1525 1526 1527 1528 1529 1531 1533 1534 1536 1537 1538 1540 1541 1541 1542 1542 1543 1543 1544 1544 1544 1544 1544 1544 1545 1545 1545 1545 1544 1544 1543 1543 1542 1542 1541 1541 1540 1540 1540 1539
1514 1516 1518 1518 1519 1519 1520 1521 1522 1524 1525 1525 1527 1528 1530 1532 1533 1534 1536 1537 1539 1540 1541 1541 1542 1542 1543 1543 1543 1544 1544 1544 1544 1545 1545 1545 1545 1544 1544 1543 1543 1542 1542 1541 1541 1540 1540 1539 1539
1515 1515 1517 1518 1517 1519 1519 1519 1520 1523 1524 1523 1525 1527 1528 1530 1532 1533 1534 1536 1537 1538 1540 1540 1541 1541 1542 1542 1543 1543 1544 1544 1544 1544 1544 1544 1544 1544 1544 1543 1543 1542 1541 1541 1540 1540 1539 1539 1538
1512 1514 1516 1516 1517 1519 1518 1518 1518 1520 1522 1522 1523 1525 1526 1528 1530 1531 1533 1534 1535 1536 1538 1539 1540 1540 1541 1541 1542 1542 1543 1543 1544 1544 1544 1544 1544 1544 1543 1543 1542 1541 1541 1541 1540 1539 1539 1539 1538
1513 1515 1515 1516 1517 1518 1517 1517 1516 1518 1520 1521 1522 1523 1525 1526 1528 1529 1531 1532 1533 1534 1536 1537 1538 1539 1539 1540 1541 1541 1542 1542 1543 1543 1543 1543 1543 1543 1543 1542 1542 1541 1540 1540 1539 1539 1539 1538 1538
1512 1513 1515 1517 1517 1516 1517 1517 1514 1516 1519 1520 1521 1522 1523 1524 1525 1527 1528 1529 1531 1532 1534 1535 1536 1537 1538 1539 1540 1540 1541 1541 1541 1541 1541 1542 1542 1542 1542 1541 1541 1540 1540 1539 1538 1538 1538 1538 1537
1513 1512 1514 1516 1516 1516 1517 1520 1512 1512 1516 1518 1520 1521 1521 1522 1524 1525 1526 1527 1528 1529 1531 1533 1534 1535 1536 1537 1538 1538 1539 1539 1540 1540 1540 1540 1540 1540 1540 1540 1539 1539 1539 1538 1538 1537 1537 1536 1536
1511 1513 1513 1514 1514 1515 1514 1516 1512 1511 1513 1515 1517 1519 1520 1521 1522 1522 1524 1524 1526 1527 1529 1530 1532 1533 1534 1535 1536 1537 1538 1538 1539 1539 1539 1539 1539 1538 1538 1538 1538 1538 1537 1536 1536 1536 1535 1535 1535
1512 1513 1513 1513 1512 1519 1513 1515 1515 1511 1513 1514 1517 1518 1519 1520 1521 1521 1522 1523 1524 1525 1526 1528 1529 1530 1531 1532 1534 1535 1535 1536 1537 1537 1537 1537 1537 1536 1536 1536 1536 1536 1535 1534 1534 1534 1534 1533 1533
1511 1513 1517 1519 1519 1517 1512 1515 1514 1512 1514 1515 1516 1517 1518 1519 1519 1519 1520 1520 1521 1522 1523 1525 1526 1527 1528 1530 1531 1532 1533 1534 1535 1535 1535 1535 1534 1534 1534 1533 1533 1533 1533 1533 1532 1532 1532 1531 1531
1509 1509 1517 1522 1519 1513 1513 1513 1511 1513 1516 1517 1517 1517 1518 1518 1518 1518 1518 1519 1519 1520 1521 1523 1524 1525 1526 1527 1528 1529 1530 1531 1532 1533 1533 1532 1532 1532 1531 1531 1531 1531 1531 1531 1530 1530 1530 1529 1529
1509 1510 1509 1511 1512 1516 1510 1508 1511 1512 1514 1515 1516 1517 1517 1517 1517 1517 1517 1517 1518 1518 1519 1520 1521 1522 1523 1525 1526 1526 1527 1528 1529 1530 1530 1530 1530 1530 1529 1529 1528 1528 1528 1528 1528 1528 1527 1527 1527
1509 1509 1511 1513 1518 1517 1511 1508 1509 1511 1512 1514 1516 1516 1517 1517 1516 1516 1515 1515 1516 1516 1517 1518 1519 1520 1521 1522 1523 1524 1524 1525 1526 1526 1527 1527 1527 1527 1526 1526 1526 1525 1525 1525 1525 1525 1525 1525 1524
1511 1514 1511 1510 1510 1514 1514 1510 1506 1509 1512 1514 1516 1517 1517 1516 1516 1515 1514 1514 1515 1515 1516 1516 1517 1518 1519 1519 1520 1521 1521 1522 1523 1523 1523 1523 1523 1523 1523 1523 1522 1522 1522 1522 1521 1521 1522 1522 1521
1507 1508 1510 1514 1511 1510 1511 1512 1507 1510 1513 1515 1516 1517 1516 1516 1515 1514 1513 1513 1513 1513 1514 1514 1515 1516 1516 1517 1517 1518 1519 1519 1519 1520 1520 1520 1520 1520 1519 1519 1519 1518 1518 1518 1518 1517 1518 1518 1518